Tracking 28799 objects as of 18-Apr-2024
HD Live streaming from Space Station
objects crossing your sky now

SL-12 R/B(2)

Track SL-12 R/B(2) now!


NORAD ID: 14548
Int'l Code: 1983-118F
Perigee: 35,615.1 km
Apogee: 35,991.3 km
Inclination: 10.1 °
Period: 1,436.6 minutes
Semi major axis: 42174 km
RCS: 0.7943 m2 (medium)
Launch date: November 30, 1983
Source: Commonwealth of Independent States (former USSR) (CIS)
Launch site: TYURATAM MISSILE AND SPACE COMPLEX (TTMTR)

Note: This is a ROCKET BODY
Your satellite tracking list
Your tracking list is empty




NASA's NSSDC Master Catalog

Two Line Element Set (TLE):
1 14548U 83118F   24108.07861686 -.00000035  00000-0  00000-0 0  9999
2 14548  10.0760 316.5011 0044607 327.0636  17.5147  1.00238040129963
Source of the keplerian elements: AFSPC